Location: *
(57.8420°S, 159.8600°W)
Time: 12:43:00
(UTC+00:00)

ATLAS CENTAUR R/B - Pass Details

Date: 18 May 2021
Orbit: 472 x 671 km, 64.6° (Epoch: 13 June)

Event Time Altitude Azimuth Distance (km) Brightness Sun altitude
Rises 03:56:53 0° 233° (SW) 2,928 5.5 -11.5°
Reaches altitude 10° 03:59:15 10° 233° (SW) 1,985 4.6 -11.8°
Maximum altitude 04:03:44 87° 320° (NW) 594 1.5 -12.3°
Drops below altitude 10° 04:07:54 10° 50° (NE) 1,841 3.7 -12.9°
Enters shadow 04:09:01 - 50° (NE) 2,291 4.2 -13.0°
